Regional Weather Roundup
Issued by NWS Northern Indiana

Home | Current Version | Previous Version | Graphics & Text | Print | Product List | Glossary On
Versions: 1 2 3 4 5 6 7 8 9 10 11 12 13 14 15 16 17 18 19 20 21 22 23 24 25 26 27 28 29 30 31 32 33 34 35 36 37 38 39 40 41 42 43 44 45 46 47 48 49 50
000
ASUS43 KIWX 280500
RWRIWX

KIWX WEATHER ROUNDUP
NATIONAL WEATHER SERVICE NORTHERN INDIANA
1200 AM EST SAT FEB 28 2015

NOTE: "FAIR" INDICATES FEW OR NO CLOUDS BELOW 12,000 FEET WITH NO
SIGNIFICANT WEATHER AND/OR OBSTRUCTIONS TO VISIBILITY.

* THESE STATIONS ARE NOT UNDER NWS QUALITY CONTROL. THEY ALSO MAY NOT
  REPORT WEATHER SUCH AS PRECIPITATION OR FOG.

INZ001>027-280600-
NORTHERN INDIANA

CITY           SKY/WX    TMP DP  RH WIND       PRES   REMARKS
SOUTH BEND     PTCLDY     2  -7  66 SW3       30.65F
GOSHEN         PTCLDY    -2  -7  79 CALM      30.65F
MONTICELLO*    MOCLDY     1  -3  80 CALM      30.68R
ANGOLA*        CLEAR     -2 -13  60 CALM      30.63S
FORT WAYNE     PTCLDY     4  -2  76 CALM      30.67R
PERU/GRISSOM   MOCLDY     4  -3  72 SW2       30.66R

$$
INZ028>050-280600-
CENTRAL INDIANA

CITY           SKY/WX    TMP DP  RH WIND       PRES   REMARKS
LAFAYETTE      PTCLDY     2  -3  80 CALM      30.70R
KOKOMO*        MOCLDY     1  -6  71 S3        30.68R
MUNCIE*        PTCLDY     3  -2  79 CALM      30.66R
INDIANAPOLIS   PTCLDY    10  -2  58 N5        30.65F WCI   2

$$
MIZ043>046-050>051-056>058-064>065-071>073-077>080-280600-
SOUTHWEST LOWER MICHIGAN

CITY           SKY/WX    TMP DP  RH WIND       PRES   REMARKS
BATTLE CREEK   FAIR       6  -5  60 SW8       30.62F WCI  -7
BENTON HARBOR  CLEAR      2  -4  76 S3        30.66S
COLDWATER*     CLEAR      1  -5  73 CALM      30.63F
HILLSDALE*     CLEAR      6  -2  68 W3        30.61S
HOLLAND        CLEAR      6  -2  69 S6        30.63F WCI  -4
GRAND RAPIDS   CLEAR      8  -1  66 SW9       30.62S WCI  -5
KALAMAZOO      CLEAR      5  -5  63 SW6       30.63F WCI  -6
STURGIS*       CLEAR      3  -4  72 CALM      30.63F
THREE RIVERS*  FAIR       2  -6  69 CALM      30.65F

$$
OHZ001>008-015>018-024>025-280600-
NORTHWEST OHIO

CITY           SKY/WX    TMP DP  RH WIND       PRES   REMARKS
DEFIANCE       CLEAR      0  -6  76 CALM      30.68S
FINDLAY        PTCLDY     4  -6  63 S5        30.66S WCI  -5
TOLEDO EXPRESS CLEAR      0  -7  72 CALM      30.67F
TOLEDO METCALF CLEAR      5  -6  60 SW3       30.69F
LIMA           MOCLDY     6  -5  60 S7        30.65S WCI  -6

$$
AND FOR LAKE MICHIGAN COASTAL AND OPEN LAKE BUOY OBSERVATIONS

STATION/POSITION TEMP    WIND        PRES    VSBY  WAVE
                 AIR SEA DIR/SP/G                  HT/PER
                 (F)     (DEG/KT/KT) (MB)    (MI)  (FT/S)
CALUMET HARBOR     7     220/  3/  4 1037.3F
MICHIGAN CITY      7     190/  7/  7   N/A
SAINT JOSEPH      10     180/ 10/ 15 1038.9S

$$
&&


USA.gov is the U.S. government's official web portal to all federal, state and local government web resources and services.